Skip Page Navigation
NASA JPL Caltech
NASA Logo - Jet Propulsion Laboratory + View the NASA Portal
+ Near-Earth Object (NEO) Program
Search JPL
JPL Home Earth Solar System Stars & Galaxies Technology
JPL Solar System Dynamics
BODIES ORBITS EPHEMERIDES TOOLS PHYSICAL DATA DISCOVERY FAQ SITE MAP
JPL Small-Body Database Browser
Search: [ help ]  
11426 Molster (2527 P-L)
Classification: Main-belt Asteroid          SPK-ID: 2011426
Ephemeris | Orbit Diagram | Orbital Elements | Physical Parameters | Discovery Circumstances | Close-Approach Data ]

[ show orbit diagram ]
Orbital Elements at Epoch 2457400.5 (2016-Jan-13.0) TDB
Reference: JPL 11 (heliocentric ecliptic J2000)
 Element Value Uncertainty (1-sigma)   Units 
e .2829865594647724 6.6095e-08  
a 3.154414401180838 2.8667e-08 au
q 2.261757522664542 2.1054e-07 au
i 15.14347421898899 7.012e-06 deg
node 185.7579279988648 2.2865e-05 deg
peri 212.9333462032968 2.5483e-05 deg
M 287.5929842266185 1.5971e-05 deg
tp 2457812.080409446575
(2017-Feb-27.58040945)
9.5436e-05 JED
period 2046.334126854558
5.60
2.7895e-05
7.637e-08
d
yr
n .1759243494381633 2.3981e-09 deg/d
Q 4.047071279697134 3.6779e-08 au
  Orbit Determination Parameters
   # obs. used (total)      703  
   data-arc span      20063 days (54.93 yr)  
   first obs. used      1960-09-24  
   last obs. used      2015-08-30  
   planetary ephem.      DE431  
   SB-pert. ephem.      SB431-BIG16  
   condition code      0  
   fit RMS      .55699  
   data source      ORB  
   producer      Otto Matic  
   solution date      2015-Oct-05 13:44:36  

Additional Information
 Earth MOID = 1.28151 au 
 Jupiter MOID = 1.47562 au 
 T_jup = 3.091 
[ show covariance matrix ]

Ephemeris | Orbit Diagram | Orbital Elements | Physical Parameters | Discovery Circumstances | Close-Approach Data ]

Physical Parameter Table
Parameter Symbol Value Units Sigma Reference Notes
absolute magnitude H 13.4 mag n/a MPO309241  

11426 Molster           Discovered 1960 Sept. 24 by C. J. van Houten and I. van Houten-Groeneveld on Palomar Schmidt plates taken by T. Gehrels.
Lucia Glen Molster (2007 Apr. 26-27) was the beloved daughter of Dutch astronomers Frank and Nathalie Molster.
NOTE: some special characters may not display properly (any characters within {} are an attempt to place the proper accent above a character)
Reference: 20070730/MPCPages.arcLast Updated: 2007-08-07

[ show close-approach data ]
Alternate Designations
 2527 P-L = 1977 SY = 1977 TD7 
Ephemeris | Orbit Diagram | Orbital Elements | Physical Parameters | Discovery Circumstances | Close-Approach Data ]
ABOUT SSD CREDITS/AWARDS PRIVACY/COPYRIGHT GLOSSARY LINKS
FirstGov 2016-Feb-08 04:04 UT
(server date/time)  
NASA Home Page
Site Manager:   Ryan S. Park
Webmaster  Alan B. Chamberlin